Hourly Data Report for August 11, 2004

TORONTO CITY
ONTARIO

43°40'00.000" N
79°24'00.000" W
112.50 m
6158355
71508
XTO

Download Data

Hourly Data (August 2004)
Hourly Data Report for August 11, 2004
TIME
LST
Temp Definition
°C
Dew Point Definition
°C
Rel Hum Definition
%
Precip. Amount Definition
mm

Wind Dir Definition
10's deg

Wind Spd Definition
km/h
Visibility Definition
km
Stn Press Definition
kPa
Hmdx Definition


Wind Chill Definition


Weather Definition


00:00 20.9 15.3 70   LegendMM LegendMM LegendMM 99.48 25   LegendNANA
01:00 19.9 15.3 75   LegendMM LegendMM LegendMM 99.46     LegendNANA
02:00 19.1 15.3 79   LegendMM LegendMM LegendMM 99.45     LegendNANA
03:00 18.9 15.4 80   LegendMM LegendMM LegendMM 99.46     LegendNANA
04:00 18.5 15.7 84   LegendMM LegendMM LegendMM 99.49     LegendNANA
05:00 18.3 15.4 83   LegendMM LegendMM LegendMM 99.51     LegendNANA
06:00 18.2 15.4 84   LegendMM LegendMM LegendMM 99.51     LegendNANA
07:00 18.4 15.5 83   LegendMM LegendMM LegendMM 99.54     LegendNANA
08:00 18.6 15.2 81   LegendMM LegendMM LegendMM 99.54     LegendNANA
09:00 19.3 15.1 77   LegendMM LegendMM LegendMM 99.59     LegendNANA
10:00 19.8 15.7 77   LegendMM LegendMM LegendMM 99.60     LegendNANA
11:00 21.3 15.9 71   LegendMM LegendMM LegendMM 99.57 26   LegendNANA
12:00 21.5 15.4 68   LegendMM LegendMM LegendMM 99.60 26   LegendNANA
13:00 22.1 14.2 61   LegendMM LegendMM LegendMM 99.57 26   LegendNANA
14:00 22.6 14.3 59   LegendMM LegendMM LegendMM 99.54 26   LegendNANA
15:00 22.8 13.5 56   LegendMM LegendMM LegendMM 99.55 26   LegendNANA
16:00 22.3 13.9 59   LegendMM LegendMM LegendMM 99.59 26   LegendNANA
17:00 22.0 14.0 60   LegendMM LegendMM LegendMM 99.62 25   LegendNANA
18:00 21.3 13.8 62   LegendMM LegendMM LegendMM 99.62 25   LegendNANA
19:00 20.4 13.6 65   LegendMM LegendMM LegendMM 99.65     LegendNANA
20:00 18.8 12.4 66   LegendMM LegendMM LegendMM 99.73     LegendNANA
21:00 17.7 12.6 72   LegendMM LegendMM LegendMM 99.83     LegendNANA
22:00 17.9 12.7 72   LegendMM LegendMM LegendMM 99.84     LegendNANA
23:00 17.4 12.8 74   LegendMM LegendMM LegendMM 99.84     LegendNANA

Notes on Data Quality.

Legend

  • E = Estimated
  • M = Missing
  • NA = Not Available*
  • [empty] = Indicates an unobserved value
Date modified: